Location: Titusville
(28.6119°N, 80.8078°W)
Time: 18:21:56

N. Korean satellite - Visible Passes

Search period start: 17 March 2018 00:00
Search period end: 27 March 2018 00:00
Orbit: 460 x 512 km, 97.2° (Epoch: 17 March)

Date Brightness Start Highest point End Pass type
(mag) Time Alt. Az. Time Alt. Az. Time Alt. Az.
19 Mar 10.1 20:22:30 10° WSW 20:24:10 13° W 20:25:50 10° WNW visible
20 Mar 9.2 19:57:08 10° SSW 20:00:14 27° W 20:03:25 10° NW visible
23 Mar 10.0 20:20:28 10° SW 20:22:20 14° W 20:24:14 10° WNW visible
